Погода в Долдыкане

Россия / Амурская область     49°53′54″N   129°52′42″E
темп.,
°C
ветер,
м/с
пор.,
м/с
влажн.,
%
обл.,
%
осадки,
мм/ч
давл.,
гПа
погр.,
м
4 июля, пн
пн400:00+20св11901 0.0 100211
03:00+18вюв11915 0.0 100211
06:00+19всв12900 0.0 100360
09:00+25юв12700 0.0 1003495
12:00+27зюз22612 0.0 10031109
15:00+28з226321 0.1 1003707
18:00+28ю11680 0.1 1002614
21:00+22в11831 0.8 100411
5 июля, вт
вт500:00+20ююв229068 0.0 100414
03:00+19в229296 0.1 100514
06:00+21вюв16910 0.0 1006194
09:00+26ююв45700 0.0 1005757
12:00+29ююз446028 0.1 10051632
15:00+29юз347039 0.8 1004646
18:00+27ю248387 2.3 1004307
21:00+22вюв2290100 2.6 100625
6 июля, ср
ср600:00+21вюв229298 0.0 100647
03:00+20вюв229391 0.0 100730
06:00+21вюв269370 0.0 1007217
09:00+26ююв467683 0.0 1007716
12:00+30ююз456010 0.0 10061560
15:00+29юз357015 0.7 1005713
18:00+27юв38794 1.1 1004284
21:00+24юв410790 1.1 1005306
7 июля, чт
чт700:00+24юв512800 0.0 1005482
03:00+22юв513815 0.0 1003508
06:00+22юв613827 0.0 1002638
09:00+26ююв71174100 0.0 10011009
12:00+27ю71177100 0.6 10001430
15:00+22ююз71195100 2.9 1000896
18:00+17ююз1299100 9.2 1001146
21:00+17ююв1198100 12.1 100117
8 июля, пт
пт800:00+16ююв22975 0.0 100117
03:00+16ююв22971 0.0 100015
06:00+18ю12963 0.0 100295
09:00+23ю357723 0.0 1000589
12:00+27ююз45640 0.0 999989
15:00+28ю466085 0.0 998853
18:00+26юв396783 0.0 997288
21:00+22ююв514818 0.3 998455